SAUDICOMSAT 3

Last updated on July 6, 2021, 3:39 p.m. UTC

1 31125U 07012J   21186.82673303  .00000115  00000-0  30134-4 0  9994
2 31125  98.0724 135.9554 0043271 359.5592   0.5566 14.65359424759748
UTC
Height (km)
Latitude
Longitude
Inclination
Orbital Period
UTC large
Height (km)
Speed (km/s)
/
Latitude / Longitude
Inclination (degrees)
Orbital Period (minutes)
Azimuth
Elevation
Range (km)
Doppler Factor
iOS Compass Heading
iOS Angle